{"data":{"norad_id":64772,"epoch":"2026-05-24T23:46:18.652224Z","epoch_age_seconds":75539,"freshness":"FRESH","line1":"1 64772U 25147T   26144.99049366  .00021616  00000+0  64901-3 0  9996","line2":"2 64772  53.1566 247.6365 0001207  81.1562 278.9577 15.34401171 50445","mean_motion":15.34401171,"eccentricity":0.0001207,"inclination_deg":53.1566,"raan_deg":247.6365,"arg_perigee_deg":81.1562,"mean_anomaly_deg":278.9577,"bstar":0.00064901,"rev_number":5044,"period_min":93.847686460088,"perigee_km":461.87407075364,"apogee_km":463.52544874744,"semimajor_km":6840.8367597505,"source":"CELESTRAK","updated_at":"2026-05-25T13:38:20.557971Z"}}